Wind_Speed
114 108 103 98 94 91 87 83 80 77 78 88 87 86 89 89 92 94 94 96 100 104 105 111 110 108 113 114 118 119 119 118 120 116 113 110 108 111
101 97 93 90 85 82 79 76 74 71 69 77 83 80 81 84 86 89 93 96 99 104 105 113 100 108 111 109 109 115 116 117 121 124 120 117 113 115
91 88 86 83 81 77 73 69 65 63 61 70 74 74 72 76 77 79 83 88 94 102 105 109 102 107 102 104 106 105 111 113 120 128 127 124 122 120
83 80 78 75 73 70 67 64 60 56 55 61 67 67 65 67 70 71 74 79 83 90 95 100 102 108 106 104 100 103 109 107 115 129 132 130 129 126
75 72 69 66 65 64 61 59 58 54 50 51 59 60 58 59 61 65 68 73 77 80 83 91 94 101 105 100 103 105 107 108 114 121 131 134 134 134
69 66 62 59 58 58 58 57 55 53 49 47 51 55 54 54 56 59 62 66 69 73 77 81 84 88 94 99 105 107 103 103 112 117 127 137 139 138
67 63 59 57 55 54 53 52 50 48 47 45 46 49 51 51 49 52 56 60 64 66 70 74 79 79 82 90 99 106 105 100 104 112 120 130 139 142
64 61 58 55 52 49 47 45 46 44 42 40 42 46 47 47 46 48 53 56 59 60 63 67 71 75 80 84 90 100 103 103 106 111 117 124 134 141
58 55 54 51 47 45 43 41 43 42 41 38 42 44 43 44 44 46 47 51 55 56 59 63 66 73 78 82 87 92 99 103 103 110 114 120 128 138
54 52 51 51 47 44 42 40 40 40 40 39 40 39 40 39 42 42 43 47 51 51 53 58 61 68 73 78 82 84 90 99 103 106 112 116 122 130
49 46 45 44 41 39 39 37 35 36 35 34 34 34 36 36 38 39 38 42 44 45 49 57 57 62 67 73 78 80 86 93 95 97 105 109 113 121
46 43 41 40 39 36 34 33 31 30 29 29 30 31 33 34 35 34 37 37 40 42 48 54 54 57 63 67 72 76 79 83 88 91 97 104 108 109
44 41 38 36 33 31 29 27 27 25 25 25 26 28 29 30 30 32 33 36 38 41 43 48 52 55 57 60 66 69 73 78 82 84 87 93 99 103
41 37 35 32 30 28 27 25 24 22 22 22 23 25 25 27 28 30 32 34 36 38 40 44 47 49 53 55 58 61 67 72 76 80 82 86 90 95
39 36 32 29 27 25 23 21 21 21 21 21 21 22 24 24 25 28 30 32 34 37 38 40 43 45 49 52 54 58 61 65 71 75 76 78 83 86
35 32 29 27 24 22 20 19 19 19 19 19 20 21 22 23 25 27 28 30 32 35 36 39 41 43 46 49 51 55 58 61 65 68 70 73 76 79
33 30 27 24 22 20 19 19 18 17 18 18 19 20 22 23 24 25 28 29 31 32 33 35 37 39 41 44 47 51 54 57 60 61 65 68 69 70
32 28 25 23 20 20 19 18 18 18 18 18 19 20 21 22 24 25 27 28 30 32 33 34 36 38 40 42 44 46 47 50 53 55 59 59 61 64
28 26 23 21 20 19 19 18 18 18 18 18 19 20 21 22 24 25 26 28 30 31 33 34 35 37 39 41 42 44 46 47 49 49 52 55 55 58
28 25 22 21 20 19 19 19 20 20 20 20 20 21 22 23 24 26 26 27 28 30 31 32 34 35 37 39 40 41 41 41 44 46 48 51 53 54
28 25 23 21 20 20 20 21 21 22 22 22 22 23 24 25 25 26 27 28 28 29 30 32 34 35 36 38 39 39 38 38 40 42 43 45 47 52
27 25 23 22 20 20 21 22 23 23 24 25 25 26 26 27 27 28 29 29 29 30 31 31 33 34 35 36 37 36 36 34 37 37 39 41 43 47
26 24 23 21 21 20 22 23 24 25 25 26 27 28 28 29 30 30 31 31 31 31 32 32 33 34 34 34 35 34 34 34 33 36 37 38 41 44
Wind_Direction
292 291 290 289 287 285 283 281 278 273 268 267 263 258 255 251 248 246 242 240 240 242 242 242 242 243 242 239 237 235 230 225 225 223 221 220 220 216
294 293 291 289 288 286 283 281 278 273 269 264 263 258 254 253 249 246 243 240 237 238 238 241 238 238 238 239 237 236 234 228 225 224 222 220 219 218
296 294 293 291 289 287 285 281 277 272 266 263 261 260 255 253 250 247 244 241 238 238 237 240 236 240 237 237 235 235 233 231 226 223 222 220 218 218
296 294 292 291 290 288 286 283 278 272 265 262 262 259 255 253 251 248 246 243 240 238 239 239 236 237 234 236 235 233 232 228 225 221 221 221 220 219
297 295 293 291 290 288 286 283 280 276 268 262 262 261 257 252 250 249 245 243 241 240 238 238 238 237 236 234 232 231 231 228 227 222 221 221 220 219
298 297 296 294 290 288 286 283 280 276 273 267 263 262 260 256 250 247 245 242 241 239 237 237 237 237 235 232 233 233 233 229 227 225 222 221 220 220
301 299 297 294 291 288 286 284 280 276 273 269 264 261 258 256 253 247 245 242 240 238 236 234 235 235 233 231 231 231 233 229 227 227 224 222 221 220
303 301 298 294 293 291 288 284 281 276 271 266 260 256 254 253 249 245 241 239 240 238 237 234 233 233 232 230 228 228 231 229 226 225 224 224 222 221
302 301 298 296 293 291 288 282 277 273 269 262 258 255 252 249 247 246 240 236 237 236 235 232 229 231 230 231 230 229 228 229 227 226 226 224 224 223
303 301 299 296 296 292 286 280 275 272 267 262 256 255 255 251 247 244 240 236 236 236 235 233 230 230 229 231 231 229 228 228 228 226 226 225 225 224
302 300 298 296 295 292 288 283 277 272 268 263 258 255 252 247 245 243 240 238 235 233 230 233 230 228 229 230 231 231 230 230 230 229 227 228 227 226
308 305 301 298 296 291 286 281 276 273 267 260 254 248 247 244 243 243 240 238 234 232 229 232 231 229 228 230 231 233 233 232 233 231 229 228 229 229
309 307 303 300 296 291 286 282 279 274 267 261 253 246 245 244 241 238 237 235 233 232 231 230 229 230 231 230 231 232 233 234 234 233 232 231 230 229
311 308 305 301 298 293 290 285 279 272 264 258 251 246 243 239 237 236 235 235 234 234 232 233 233 232 233 234 235 234 235 234 234 234 233 232 232 231
313 311 307 302 299 294 290 284 277 269 263 256 249 244 239 237 234 233 232 232 232 232 233 234 234 233 234 234 235 236 236 236 235 236 235 234 233 231
315 314 309 303 298 294 288 281 276 271 265 257 250 244 238 235 232 230 230 230 231 231 232 233 235 235 236 236 236 237 238 238 238 238 238 236 235 233
319 315 311 304 297 291 285 279 275 271 264 256 248 242 237 235 233 231 231 232 232 234 234 234 236 238 239 241 241 240 240 241 241 241 240 239 238 236
318 314 311 304 297 291 284 276 271 264 259 254 248 244 241 238 236 235 235 236 237 239 240 241 242 243 245 245 246 245 244 244 243 243 243 241 239 237
320 317 312 304 296 290 282 275 268 262 258 254 250 247 243 240 239 239 240 240 241 242 243 245 245 246 249 250 249 249 249 248 247 244 242 242 240 236
322 319 313 304 292 287 279 273 270 264 258 254 250 248 247 245 244 243 242 242 243 245 246 248 250 250 251 252 253 252 251 249 248 245 243 241 239 237
319 317 312 304 292 282 276 270 267 265 262 258 252 249 248 248 248 248 247 246 245 246 246 249 252 253 255 255 254 254 252 249 247 245 244 241 238 236
318 313 309 303 293 280 273 269 264 263 261 260 257 253 250 250 249 248 249 249 249 250 251 253 254 256 255 255 256 255 254 249 246 244 242 240 238 234
316 310 306 302 294 282 273 269 266 262 261 259 258 256 255 254 252 250 251 252 252 252 253 254 255 255 256 256 256 255 255 252 245 243 242 240 237 236
Height
10212 10201 10192 10184 10178 10172 10169 10169 10168 10176 10174 10155 10157 10166 10168 10176 10181 10187 10197 10205 10213 10217 10228 10232 10242 10259 10271 10288 10303 10321 10339 10357 10375 10391 10407 10420 10434 10448
10177 10168 10157 10149 10145 10141 10138 10137 10136 10139 10141 10129 10119 10128 10135 10139 10146 10155 10163 10172 10181 10184 10193 10193 10218 10221 10233 10250 10269 10284 10306 10326 10345 10361 10377 10390 10404 10420
10147 10136 10126 10119 10113 10110 10108 10108 10107 10107 10110 10099 10096 10097 10106 10109 10115 10124 10131 10139 10149 10155 10163 10165 10185 10191 10209 10221 10234 10253 10269 10288 10310 10329 10345 10360 10374 10390
10120 10111 10102 10094 10088 10084 10081 10078 10078 10080 10083 10076 10070 10074 10082 10085 10088 10096 10104 10110 10118 10126 10136 10143 10156 10164 10177 10188 10206 10219 10231 10253 10270 10292 10310 10333 10348 10362
10094 10086 10079 10073 10066 10060 10057 10054 10052 10054 10057 10057 10049 10051 10057 10061 10067 10070 10077 10083 10091 10101 10110 10115 10126 10137 10150 10167 10177 10188 10202 10224 10243 10260 10281 10301 10319 10334
10071 10064 10059 10053 10048 10042 10035 10032 10031 10031 10033 10035 10033 10032 10036 10039 10046 10050 10055 10061 10068 10076 10085 10093 10101 10112 10125 10136 10149 10161 10176 10195 10210 10228 10245 10264 10284 10301
10048 10043 10037 10031 10027 10022 10018 10013 10012 10012 10012 10015 10014 10014 10015 10019 10026 10032 10035 10040 10045 10053 10060 10068 10077 10088 10099 10111 10122 10135 10151 10170 10185 10200 10217 10235 10254 10274
10027 10020 10014 10010 10006 10003 10000 9996 9992 9992 9994 9996 9996 9995 9998 10003 10007 10011 10014 10020 10025 10035 10041 10050 10058 10066 10074 10083 10094 10107 10123 10139 10156 10170 10185 10205 10223 10240
10010 10003 9995 9991 9989 9986 9983 9980 9977 9976 9977 9980 9979 9980 9984 9988 9990 9994 9998 10002 10006 10014 10022 10029 10038 10044 10052 10060 10070 10083 10097 10110 10127 10141 10156 10172 10191 10207
9995 9988 9980 9973 9971 9969 9965 9963 9963 9962 9962 9964 9964 9969 9970 9975 9975 9979 9982 9986 9991 10001 10009 10013 10023 10027 10036 10044 10052 10065 10077 10088 10100 10114 10129 10144 10160 10177
9981 9975 9968 9961 9957 9954 9950 9949 9949 9948 9949 9951 9953 9956 9957 9960 9962 9964 9970 9974 9981 9988 9993 9994 10006 10014 10021 10027 10034 10044 10054 10063 10077 10093 10108 10120 10134 10150
9966 9961 9955 9949 9945 9941 9939 9937 9936 9937 9938 9939 9941 9943 9944 9948 9950 9955 9958 9965 9969 9975 9977 9980 9990 9998 10005 10011 10020 10027 10038 10048 10059 10072 10084 10098 10111 10126
9953 9947 9943 9937 9933 9930 9928 9927 9927 9927 9927 9929 9931 9933 9935 9938 9942 9945 9949 9953 9957 9961 9966 9970 9976 9983 9990 10000 10005 10014 10022 10029 10039 10051 10063 10075 10088 10104
9941 9936 9932 9927 9924 9921 9920 9919 9918 9918 9919 9920 9922 9924 9927 9930 9933 9937 9940 9943 9947 9951 9956 9960 9966 9974 9980 9986 9993 9999 10005 10013 10021 10027 10039 10051 10065 10080
9931 9926 9922 9918 9915 9913 9912 9911 9910 9910 9911 9913 9914 9917 9920 9923 9926 9929 9932 9935 9939 9943 9947 9951 9956 9962 9967 9974 9979 9983 9989 9996 10001 10009 10021 10032 10041 10054
9923 9917 9913 9910 9908 9906 9905 9904 9904 9904 9905 9907 9908 9910 9913 9916 9919 9922 9925 9928 9931 9935 9939 9943 9946 9951 9955 9960 9966 9970 9974 9980 9986 9993 10003 10011 10021 10032
9914 9910 9906 9903 9901 9900 9899 9898 9898 9899 9899 9901 9902 9904 9906 9909 9913 9916 9918 9921 9924 9927 9931 9935 9938 9941 9945 9948 9953 9957 9962 9966 9971 9979 9985 9992 10003 10014
9907 9902 9899 9896 9895 9893 9893 9892 9892 9893 9893 9894 9896 9898 9901 9904 9906 9909 9912 9915 9918 9920 9923 9926 9930 9932 9935 9938 9941 9945 9949 9953 9958 9965 9969 9977 9986 9996
9900 9896 9892 9890 9888 9887 9886 9886 9886 9887 9887 9889 9891 9892 9894 9897 9899 9902 9905 9908 9911 9913 9915 9917 9920 9923 9925 9927 9930 9932 9935 9939 9944 9949 9954 9959 9968 9976
9893 9889 9886 9884 9882 9881 9880 9880 9880 9881 9881 9883 9885 9886 9888 9890 9892 9894 9897 9899 9902 9904 9906 9908 9910 9913 9914 9915 9917 9919 9922 9927 9929 9934 9938 9944 9951 9958
9886 9882 9880 9878 9876 9875 9874 9874 9874 9875 9875 9876 9878 9879 9880 9882 9885 9886 9888 9890 9893 9895 9897 9899 9900 9902 9903 9904 9906 9907 9910 9914 9916 9919 9924 9929 9934 9940
9880 9876 9873 9871 9869 9868 9868 9868 9868 9868 9869 9869 9870 9871 9873 9875 9877 9878 9879 9881 9884 9886 9887 9889 9890 9891 9893 9894 9895 9897 9898 9901 9904 9906 9910 9915 9920 9924
9873 9869 9866 9864 9862 9861 9861 9860 9860 9860 9861 9861 9862 9862 9864 9866 9868 9869 9871 9873 9874 9876 9877 9879 9880 9881 9882 9884 9885 9887 9888 9889 9892 9895 9898 9902 9905 9909